Previsão horária em Cergowa

Hoje, 3 Agosto, Terça-feira

Tempo Temperatura Precipitação Vento Pressão Humidade
00:00 +14°C° 0 mm 1 m/s 730 mmHg 91%
01:00 +13°C° 0 mm 1 m/s 730 mmHg 91%
02:00 +13°C° 0 mm 1 m/s 730 mmHg 91%
03:00 +13°C° 0 mm 1 m/s 730 mmHg 91%
04:00 +12°C° 0 mm 0 m/s 730 mmHg 91%
05:00 +13°C° 0 mm 0 m/s 730 mmHg 87%
06:00 +15°C° 0 mm 0 m/s 730 mmHg 84%
07:00 +16°C° 0 mm 0 m/s 731 mmHg 80%
08:00 +20°C° 0.1 mm 1 m/s 731 mmHg 71%
09:00 +21°C° 0.1 mm 1 m/s 731 mmHg 63%
10:00 +23°C° 0.1 mm 1 m/s 731 mmHg 55%
11:00 +24°C° 0.1 mm 1 m/s 731 mmHg 52%
12:00 +24°C° 0.1 mm 2 m/s 730 mmHg 49%
13:00 +25°C° 0.1 mm 2 m/s 730 mmHg 46%
14:00 +25°C° 0 mm 1 m/s 730 mmHg 48%
15:00 +24°C° 0 mm 1 m/s 730 mmHg 50%
16:00 +24°C° 0 mm 1 m/s 729 mmHg 52%
17:00 +23°C° 0 mm 1 m/s 729 mmHg 58%
18:00 +21°C° 0 mm 1 m/s 729 mmHg 64%
19:00 +20°C° 0 mm 1 m/s 729 mmHg 69%
20:00 +19°C° 0.2 mm 1 m/s 729 mmHg 74%
21:00 +18°C° 0.2 mm 1 m/s 729 mmHg 79%
22:00 +15°C° 0.2 mm 1 m/s 729 mmHg 84%
23:00 +15°C° 0 mm 1 m/s 729 mmHg 84%

Amanhã, 4 Agosto, Quarta-feira

Tempo Temperatura Precipitação Vento Pressão Humidade
00:00 +15°C° 0 mm 1 m/s 729 mmHg 84%
01:00 +15°C° 0 mm 1 m/s 729 mmHg 84%
02:00 +14°C° 0 mm 1 m/s 729 mmHg 84%
03:00 +14°C° 0 mm 1 m/s 729 mmHg 84%
04:00 +14°C° 0 mm 1 m/s 729 mmHg 83%
05:00 +16°C° 0 mm 1 m/s 729 mmHg 81%
06:00 +18°C° 0 mm 1 m/s 729 mmHg 78%
07:00 +19°C° 0 mm 1 m/s 729 mmHg 76%
08:00 +20°C° 0 mm 1 m/s 729 mmHg 71%
09:00 +21°C° 0 mm 1 m/s 729 mmHg 67%
10:00 +23°C° 0 mm 2 m/s 729 mmHg 62%
11:00 +24°C° 0 mm 2 m/s 729 mmHg 58%
12:00 +25°C° 0 mm 2 m/s 729 mmHg 53%
13:00 +26°C° 0 mm 2 m/s 729 mmHg 49%
14:00 +25°C° 0 mm 2 m/s 728 mmHg 54%
15:00 +24°C° 0 mm 3 m/s 728 mmHg 59%
16:00 +24°C° 0 mm 3 m/s 728 mmHg 64%
17:00 +21°C° 0.1 mm 3 m/s 728 mmHg 73%
18:00 +19°C° 0.1 mm 2 m/s 728 mmHg 82%
19:00 +17°C° 0.1 mm 2 m/s 728 mmHg 91%
20:00 +18°C° 0 mm 1 m/s 728 mmHg 92%
21:00 +16°C° 0 mm 1 m/s 728 mmHg 93%
22:00 +16°C° 0 mm 1 m/s 728 mmHg 94%
23:00 +16°C° 0 mm 1 m/s 727 mmHg 94%

Depois de amanhã, 5 Agosto, Quinta-feira

Tempo Temperatura Precipitação Vento Pressão Humidade
00:00 +16°C° 0 mm 1 m/s 727 mmHg 94%
01:00 +15°C° 0 mm 1 m/s 727 mmHg 93%
02:00 +15°C° 0 mm 1 m/s 727 mmHg 94%
03:00 +15°C° 0 mm 1 m/s 726 mmHg 94%
04:00 +16°C° 0 mm 1 m/s 726 mmHg 94%
05:00 +16°C° 0 mm 1 m/s 726 mmHg 93%
06:00 +16°C° 0 mm 1 m/s 726 mmHg 92%
07:00 +18°C° 0 mm 1 m/s 725 mmHg 91%
08:00 +19°C° 0 mm 1 m/s 725 mmHg 86%
09:00 +20°C° 0 mm 1 m/s 725 mmHg 81%
10:00 +21°C° 0 mm 1 m/s 725 mmHg 76%
11:00 +21°C° 0 mm 1 m/s 725 mmHg 77%
12:00 +20°C° 0 mm 2 m/s 724 mmHg 78%
13:00 +20°C° 0 mm 2 m/s 724 mmHg 79%
14:00 +20°C° 0.8 mm 2 m/s 723 mmHg 85%
15:00 +19°C° 0.8 mm 2 m/s 723 mmHg 90%
16:00 +18°C° 0.8 mm 2 m/s 723 mmHg 96%
17:00 +18°C° 3 mm 2 m/s 722 mmHg 97%
18:00 +18°C° 3 mm 2 m/s 721 mmHg 98%
19:00 +17°C° 3 mm 2 m/s 721 mmHg 98%
20:00 +17°C° 4.8 mm 2 m/s 721 mmHg 98%
21:00 +17°C° 4.8 mm 3 m/s 721 mmHg 98%
22:00 +16°C° 4.8 mm 3 m/s 721 mmHg 98%
23:00 +16°C° 0.9 mm 3 m/s 721 mmHg 98%

6 Agosto, Sexta-feira

Tempo Temperatura Precipitação Vento Pressão Humidade
00:00 +16°C° 0.9 mm 2 m/s 721 mmHg 98%
01:00 +15°C° 0.9 mm 2 m/s 721 mmHg 97%
02:00 +15°C° 0.1 mm 2 m/s 721 mmHg 97%
03:00 +15°C° 0.1 mm 2 m/s 721 mmHg 97%
04:00 +15°C° 0.1 mm 2 m/s 721 mmHg 97%
05:00 +15°C° 0.1 mm 2 m/s 722 mmHg 96%
06:00 +15°C° 0.1 mm 2 m/s 722 mmHg 95%
07:00 +15°C° 0.1 mm 2 m/s 722 mmHg 95%
08:00 +14°C° 0.2 mm 3 m/s 722 mmHg 95%
09:00 +14°C° 0.2 mm 3 m/s 722 mmHg 95%
10:00 +14°C° 0.2 mm 3 m/s 723 mmHg 95%
11:00 +14°C° 0.1 mm 3 m/s 723 mmHg 94%
12:00 +16°C° 0.1 mm 3 m/s 723 mmHg 94%
13:00 +16°C° 0.1 mm 3 m/s 724 mmHg 93%
14:00 +16°C° 0.1 mm 3 m/s 724 mmHg 91%
15:00 +17°C° 0.1 mm 3 m/s 724 mmHg 88%
16:00 +17°C° 0.1 mm 4 m/s 724 mmHg 86%
17:00 +16°C° 0.1 mm 3 m/s 724 mmHg 88%
18:00 +16°C° 0.1 mm 2 m/s 724 mmHg 91%
19:00 +15°C° 0.1 mm 2 m/s 725 mmHg 93%
20:00 +14°C° 0 mm 2 m/s 725 mmHg 94%
21:00 +14°C° 0 mm 1 m/s 725 mmHg 95%
22:00 +13°C° 0 mm 1 m/s 725 mmHg 96%
23:00 +13°C° 0 mm 1 m/s 725 mmHg 95%

7 Agosto, Sábado

Tempo Temperatura Precipitação Vento Pressão Humidade
00:00 +13°C° 0 mm 1 m/s 726 mmHg 94%
01:00 +12°C° 0 mm 1 m/s 726 mmHg 94%
02:00 +12°C° 0 mm 1 m/s 726 mmHg 94%
03:00 +12°C° 0 mm 1 m/s 726 mmHg 93%
04:00 +12°C° 0 mm 1 m/s 726 mmHg 93%
05:00 +14°C° 0 mm 1 m/s 726 mmHg 89%
06:00 +15°C° 0 mm 1 m/s 727 mmHg 84%
07:00 +18°C° 0 mm 1 m/s 727 mmHg 80%
08:00 +20°C° 0 mm 1 m/s 727 mmHg 72%
09:00 +20°C° 0 mm 2 m/s 727 mmHg 63%
10:00 +23°C° 0 mm 2 m/s 728 mmHg 55%
11:00 +24°C° 0 mm 2 m/s 728 mmHg 52%
12:00 +25°C° 0 mm 2 m/s 728 mmHg 49%
13:00 +26°C° 0 mm 2 m/s 728 mmHg 47%
14:00 +26°C° 0 mm 1 m/s 728 mmHg 48%
15:00 +26°C° 0 mm 1 m/s 728 mmHg 50%
16:00 +26°C° 0 mm 1 m/s 728 mmHg 52%
17:00 +24°C° 0 mm 1 m/s 728 mmHg 59%
18:00 +22°C° 0 mm 1 m/s 728 mmHg 67%
19:00 +20°C° 0 mm 1 m/s 728 mmHg 74%
20:00 +19°C° 0 mm 1 m/s 728 mmHg 75%
21:00 +19°C° 0 mm 1 m/s 728 mmHg 77%
22:00 +18°C° 0 mm 1 m/s 728 mmHg 78%
23:00 +18°C° 0 mm 1 m/s 729 mmHg 79%

8 Agosto, Domingo

Tempo Temperatura Precipitação Vento Pressão Humidade
00:00 +16°C° 0 mm 1 m/s 729 mmHg 80%
01:00 +16°C° 0 mm 2 m/s 729 mmHg 82%
02:00 +16°C° 0 mm 2 m/s 729 mmHg 82%
03:00 +15°C° 0 mm 2 m/s 729 mmHg 82%
04:00 +15°C° 0 mm 2 m/s 729 mmHg 82%
05:00 +17°C° 0 mm 2 m/s 729 mmHg 77%
06:00 +19°C° 0 mm 3 m/s 729 mmHg 71%
07:00 +21°C° 0 mm 3 m/s 730 mmHg 65%
08:00 +23°C° 0 mm 4 m/s 730 mmHg 59%
09:00 +26°C° 0 mm 4 m/s 730 mmHg 52%
10:00 +27°C° 0 mm 5 m/s 730 mmHg 46%
11:00 +28°C° 0 mm 5 m/s 730 mmHg 45%
12:00 +28°C° 0 mm 4 m/s 730 mmHg 44%
13:00 +29°C° 0 mm 4 m/s 730 mmHg 43%
14:00 +29°C° 0 mm 4 m/s 730 mmHg 44%
15:00 +29°C° 0 mm 4 m/s 730 mmHg 44%
16:00 +30°C° 0 mm 4 m/s 730 mmHg 45%
17:00 +27°C° 0 mm 3 m/s 730 mmHg 54%
18:00 +25°C° 0 mm 2 m/s 731 mmHg 63%
19:00 +23°C° 0 mm 1 m/s 731 mmHg 72%
20:00 +22°C° 0 mm 1 m/s 731 mmHg 77%
21:00 +21°C° 0 mm 1 m/s 731 mmHg 81%
22:00 +20°C° 0 mm 1 m/s 732 mmHg 86%
23:00 +19°C° 0 mm 1 m/s 732 mmHg 88%
Mostrar mais

Necessitamos do seu Consentimento

A Meteoprog e os seus Fornecedores de Serviços podem armazenar e aceder a dados pessoais como cookies, identificadores do dispositivo ou outras tecnologias semelhantes existentes no seu dispositivo e processar estes dados para personalizar conteúdos e anúncios, assim como funcionalidades nas redes sociais e análise de tráfego.

  • Armazenar e/ou aceder a informações no seu dispositivo

    Os cookies, identificadores do dispositivo ou outras informações podem ser armazenados ou acedidos no seu dispositivo, para os fins acima indicados.

  • Anúncios e conteúdos personalizados, medição de anúncios e conteúdos, dados sobre o público-alvo e desenvolvimento de produtos

    Os anúncios e os conteúdos podem ser personalizados com base num perfil. Podem ser adicionados dados adicionais para uma maior personalização dos anúncios e dos conteúdos. A eficácia dos anúncios e dos conteúdos pode ser medida. Podem ser obtidas informações sobre o público que visualizou os anúncios e os conteúdos. Estes dados podem ser usados para desenvolver ou melhorar sistemas, softwares ou a experiência do utilizador.

Ao clicar em "Eu concordo”, permitirá o uso de cookies, identificadores do dispositivo e web beacons mencionados ou outras tecnologias semelhantes. As configurações do navegador do seu dispositivo podem ser alteradas.

Para certos fins, podem ser invocados interesses legítimos ao invés de consentimento. Pode ler mais informação sobre este assunto na nossa Política de Privacidade e Cookies.